K4FB Weather Reports


time (UTC)temp
F
wind
direction
speed
knots
gust
knots
rain 1hr
in
rain 24hr
in
rain mn
in
humidity
%
barometer
mb
20260502230022 71 200 1.7 3.5 0.02 0.07 0.07 93 1011.5
20260502225007 71 214 0.9 6.1 0.02 0.07 0.07 93 1011.9
20260502224522 71 213 0.9 5.2 0.01 0.06 0.06 92 1012.1
20260502224008 71 228 1.7 7.0 0.01 0.06 0.06 92 1012.2
20260502223505 71 198 4.3 7.0 0.00 0.05 0.05 92 1012.5
20260502223018 71 207 2.6 7.8 0.00 0.05 0.05 92 1012.4
20260502222510 71 205 3.5 9.6 0.00 0.05 0.05 92 1012.1
20260502222005 71 190 6.1 9.6 0.00 0.05 0.05 92 1012.0
20260502220013 71 180 0.9 7.8 0.00 0.05 0.05 92 1011.6
20260502214521 71 200 5.2 9.6 0.01 0.05 0.05 91 1012.4
20260502214004 71 205 2.6 5.2 0.02 0.05 0.05 92 1012.2
20260502213507 70 208 1.7 4.3 0.05 0.05 0.05 92 1011.8
20260502213029 70 217 0.9 6.1 0.05 0.05 0.05 91 1011.7
20260502212506 70 284 1.7 7.0 0.05 0.05 0.05 91 1011.8
20260502212005 70 263 2.6 7.8 0.05 0.05 0.05 91 1012.1
20260502211522 70 240 2.6 7.8 0.05 0.05 0.05 91 1012.1
20260502211009 70 225 3.5 9.6 0.05 0.05 0.05 91 1012.1
20260502205006 71 240 4.3 8.7 0.04 0.04 0.04 87 1012.1
20260502204524 71 261 2.6 8.7 0.04 0.04 0.04 86 1011.9
20260502204006 71 332 1.7 10.4 0.03 0.03 0.03 84 1011.7
20260502203018 72 275 6.1 14.8 0.00 0.00 0.00 81 1012.3
20260502202509 73 234 5.2 15.6 0.00 0.00 0.00 79 1012.3
20260502201525 74 279 4.3 15.6 0.00 0.00 0.00 76 1012.4
20260502201006 76 271 6.1 20.9 0.00 0.00 0.00 72 1012.6
20260502200510 77 331 8.7 20.9 0.00 0.00 0.00 65 1012.7
20260502200036 81 330 11.3 18.2 0.00 0.00 0.00 63 1012.7
20260502194518 82 182 5.2 11.3 0.00 0.00 0.00 71 1011.9
20260502192008 83 248 7.0 10.4 0.00 0.00 0.00 69 1011.8
20260502191524 83 255 6.1 10.4 0.00 0.00 0.00 70 1011.7
20260502190509 84 252 5.2 10.4 0.00 0.00 0.00 72 1012.0
20260502190018 84 246 3.5 10.4 0.00 0.00 0.00 72 1012.0
20260502185508 84 257 4.3 13.0 0.00 0.00 0.00 71 1012.1
20260502185011 84 228 7.0 13.0 0.00 0.00 0.00 70 1012.0
20260502184526 84 228 7.0 15.6 0.00 0.00 0.00 69 1011.9
20260502183020 85 253 5.2 13.9 0.00 0.00 0.00 68 1012.0
20260502180509 86 209 9.6 16.5 0.00 0.00 0.00 66 1012.1
20260502170509 87 241 12.2 21.7 0.00 0.00 0.00 63 1012.1
20260502163020 88 202 8.7 20.0 0.00 0.00 0.00 61 1012.0
20260502162509 87 190 10.4 20.0 0.00 0.00 0.00 64 1012.0
20260502161006 85 189 7.0 13.0 0.00 0.00 0.00 67 1012.4
20260502160507 85 226 6.1 12.2 0.00 0.00 0.00 68 1012.3
20260502130503 74 213 5.2 11.3 0.00 0.00 0.00 87 1011.7
20260502123004 71 207 1.7 7.8 0.00 0.00 0.00 96 1011.6
20260502122003 70 160 4.3 8.7 0.00 0.00 0.00 96 1011.5
20260502121503 70 161 3.5 7.0 0.00 0.00 0.00 96 1011.3
20260502121005 70 206 3.5 7.8 0.00 0.00 0.00 96 1011.3
20260502120504 70 197 5.2 7.8 0.00 0.00 0.00 96 1011.4
20260502115504 69 181 5.2 8.7 0.00 0.00 0.00 96 1011.6
20260502115003 69 189 4.3 7.8 0.00 0.00 0.00 96 1011.5
20260502114508 69 184 2.6 7.8 0.00 0.00 0.00 96 1011.5
20260502114003 69 180 2.6 6.1 0.00 0.00 0.00 96 1011.6
20260502113503 69 180 1.7 4.3 0.00 0.00 0.00 96 1011.6
20260502113006 69 192 0.9 3.5 0.00 0.00 0.00 96 1011.6
20260502111508 69 188 0.9 2.6 0.00 0.00 0.00 96 1011.4
20260502111003 68 189 0.9 2.6 0.00 0.00 0.00 96 1011.5
20260502110503 68 187 0.0 2.6 0.00 0.00 0.00 96 1011.4
20260502105504 68 183 0.9 2.6 0.00 0.00 0.00 96 1011.3
20260502105003 68 182 0.0 1.7 0.00 0.00 0.00 96 1011.3
20260502104513 68 182 0.0 1.7 0.00 0.00 0.00 96 1011.2
20260502104003 68 182 0.0 1.7 0.00 0.00 0.00 96 1011.2
20260502103503 68 182 0.0 2.6 0.00 0.00 0.00 96 1011.0
20260502103011 67 182 0.0 2.6 0.00 0.00 0.00 96 1010.8
20260502102503 67 182 0.9 2.6 0.00 0.00 0.00 96 1010.7
20260502102003 67 181 0.0 2.6 0.00 0.00 0.00 96 1010.7
20260502101508 67 190 0.0 2.6 0.00 0.00 0.00 96 1010.9
20260502101002 66 181 0.9 2.6 0.00 0.00 0.00 95 1010.9
20260502100502 66 176 0.0 2.6 0.00 0.00 0.00 95 1011.0
20260502091508 66 231 0.0 0.0 0.00 0.00 0.00 95 1011.7
20260502091003 66 231 0.0 0.0 0.00 0.00 0.00 94 1011.7
20260502090502 66 231 0.0 0.0 0.00 0.00 0.00 94 1011.6
20260502071517 67 231 0.0 0.0 0.00 0.00 0.00 93 1012.0
20260502071004 68 231 0.0 0.0 0.00 0.00 0.00 93 1012.0
20260502070017 68 231 0.0 0.0 0.00 0.00 0.00 93 1012.1
20260502065507 68 231 0.0 0.0 0.00 0.00 0.00 93 1012.1
20260502065011 68 231 0.0 0.0 0.00 0.00 0.00 94 1012.2
20260502064517 68 231 0.0 0.0 0.00 0.00 0.00 93 1012.2
20260502064007 68 231 0.0 0.0 0.00 0.00 0.00 93 1012.2
20260502063504 68 231 0.0 0.0 0.00 0.00 0.00 93 1012.3
20260502063018 68 231 0.0 0.0 0.00 0.00 0.00 93 1012.3
20260502062509 68 231 0.0 0.0 0.00 0.00 0.00 93 1012.3
20260502062006 68 231 0.0 0.0 0.00 0.00 0.00 93 1012.3
20260502061515 68 231 0.0 0.0 0.00 0.00 0.00 93 1012.5
20260502061004 68 231 0.0 0.0 0.00 0.00 0.00 93 1012.6
20260502060507 68 231 0.0 0.0 0.00 0.00 0.00 92 1012.5
20260502060012 68 231 0.0 0.0 0.00 0.00 0.00 92 1012.6
20260502055505 68 231 0.0 0.0 0.00 0.00 0.00 93 1012.5
20260502055006 69 231 0.0 0.0 0.00 0.00 0.00 92 1012.4
20260502054516 69 231 0.0 0.0 0.00 0.00 0.00 92 1012.4
20260502053504 69 231 0.0 0.0 0.00 0.00 0.00 92 1012.4
20260502053016 69 231 0.0 0.9 0.00 0.00 0.00 92 1012.6
20260502052504 69 231 0.0 0.9 0.00 0.00 0.00 92 1012.7
20260502052008 69 231 0.0 0.9 0.00 0.00 0.00 92 1012.8
20260502051518 69 231 0.0 1.7 0.00 0.00 0.00 92 1012.8
20260502051003 69 231 0.0 1.7 0.00 0.00 0.00 92 1012.8
20260502050505 69 231 0.0 1.7 0.00 0.00 0.00 91 1012.7
20260502050005 69 231 0.0 0.9 0.00 0.00 0.00 90 1012.6
20260502045503 69 231 0.0 0.9 0.00 0.00 0.00 91 1012.6
20260502045009 69 231 0.0 0.9 0.00 0.00 0.00 91 1012.7
20260502044505 69 231 0.0 0.0 0.00 0.00 0.00 90 1012.8
20260502044002 70 231 0.0 0.0 0.00 0.00 0.00 90 1012.8
20260502043505 70 231 0.0 0.0 0.00 0.00 0.00 89 1012.8
20260502043014 70 231 0.0 0.0 0.00 0.00 0.00 89 1012.7
20260502041517 70 231 0.0 0.0 0.00 0.00 0.00 88 1012.8
20260502041004 71 231 0.0 0.0 0.00 0.00 0.00 87 1012.7
20260502040500 71 231 0.0 0.0 0.00 0.00 0.00 87 1012.8
20260502035503 71 231 0.0 1.7 0.00 0.00 0.00 87 1012.7
20260502035003 71 231 0.0 1.7 0.00 0.00 0.00 87 1012.7
20260502034507 72 231 0.0 1.7 0.00 0.00 0.00 86 1012.9
20260502034006 72 231 0.0 2.6 0.00 0.00 0.00 86 1012.9
20260502033504 72 231 0.0 2.6 0.00 0.00 0.00 86 1012.9
20260502033011 72 231 0.9 2.6 0.00 0.00 0.00 85 1012.8
20260502032506 72 230 0.9 1.7 0.00 0.00 0.00 85 1012.7
20260502032003 72 230 0.0 2.6 0.00 0.00 0.00 85 1012.6
20260502031503 73 229 0.9 2.6 0.00 0.00 0.00 84 1012.8
20260502030501 73 229 0.9 2.6 0.00 0.00 0.00 83 1012.7
20260502030022 73 225 0.9 3.5 0.00 0.00 0.00 83 1012.7
20260502025503 73 236 0.9 3.5 0.00 0.00 0.00 83 1012.7
20260502025003 74 236 1.7 3.5 0.00 0.00 0.00 83 1012.7
20260502024506 74 229 0.9 3.5 0.00 0.00 0.00 82 1012.8
20260502024003 74 237 0.9 3.5 0.00 0.00 0.00 82 1012.8
20260502023503 74 257 0.9 3.5 0.00 0.00 0.00 81 1012.8
20260502023008 74 236 1.7 4.3 0.00 0.00 0.00 81 1012.8
20260502022504 74 235 1.7 4.3 0.00 0.00 0.00 81 1012.7
20260502022006 74 235 1.7 5.2 0.00 0.00 0.00 80 1012.6
20260502021507 75 238 2.6 5.2 0.00 0.00 0.00 79 1012.7
20260502021004 75 244 1.7 5.2 0.00 0.00 0.00 78 1012.7
20260502020504 75 229 1.7 5.2 0.00 0.00 0.00 78 1012.7
20260502020008 75 262 0.9 5.2 0.00 0.00 0.00 77 1012.6
20260502015505 75 248 0.9 4.3 0.00 0.00 0.00 1012.6
20260502015006 75 240 1.7 5.2 0.00 0.00 0.00 75 1012.5
20260502014505 76 232 1.7 7.0 0.00 0.00 0.00 75 1012.4
20260502014002 76 234 2.6 7.0 0.00 0.00 0.00 75 1012.3
20260502013503 76 241 1.7 5.2 0.00 0.00 0.00 73 1012.2
20260502013021 76 236 0.9 5.2 0.00 0.00 0.00 71 1012.2
20260502012503 77 231 2.6 4.3 0.00 0.00 0.00 69 1012.1
20260502012004 77 238 2.6 4.3 0.00 0.00 0.00 68 1012.0
20260502011508 78 234 1.7 3.5 0.00 0.00 0.00 67 1012.0
20260502011004 78 236 1.7 5.2 0.00 0.00 0.00 66 1012.0
20260502010507 78 253 1.7 7.0 0.00 0.00 0.00 66 1012.0
20260502010012 78 253 1.7 7.0 0.00 0.00 0.00 65 1011.9
20260502005504 79 253 3.5 7.0 0.00 0.00 0.00 65 1011.9
20260502005003 79 271 2.6 7.0 0.00 0.00 0.00 63 1011.8
20260502004510 79 282 2.6 7.0 0.00 0.00 0.00 63 1011.9
20260502004007 79 283 0.9 6.1 0.00 0.00 0.00 63 1011.7
20260502003504 80 263 0.9 7.8 0.00 0.00 0.00 62 1011.6
20260502003006 80 264 3.5 8.7 0.00 0.00 0.00 61 1011.7
20260502002503 80 242 3.5 8.7 0.00 0.00 0.00 60 1011.5
20260502002003 81 252 3.5 7.8 0.00 0.00 0.00 59 1011.4
20260502001506 81 238 3.5 8.7 0.00 0.00 0.00 57 1011.4
20260502001003 81 264 4.3 9.6 0.00 0.00 0.00 57 1011.4
20260502000503 82 243 5.2 11.3 0.00 0.00 0.00 57 1011.3
20260502000017 82 270 6.1 11.3 0.00 0.00 0.00 57 1011.3
20260501235503 82 255 5.2 9.6 0.00 0.00 0.00 56 1011.2
20260501235003 83 265 4.3 8.7 0.00 0.00 0.00 56 1011.2
20260501234514 83 271 2.6 8.7 0.00 0.00 0.00 55 1011.1
20260501234004 84 241 4.3 8.7 0.00 0.00 0.00 54 1011.0
20260501233504 84 188 3.5 8.7 0.00 0.00 0.00 55 1010.9
20260501233015 84 259 4.3 7.8 0.00 0.00 0.00 54 1010.8
20260501232507 85 235 4.3 9.6 0.00 0.00 0.00 53 1010.8
20260501232003 85 249 4.3 10.4 0.00 0.00 0.00 52 1010.7
20260501231504 86 264 7.0 10.4 0.00 0.00 0.00 51 1010.7
20260501231004 86 218 5.2 11.3 0.00 0.00 0.00 50 1010.6